This demonstration page uses our WeatherBlox Daily Observations layout. Learn more.

Left ArrowRight Arrow

44.8408, -93.29828

Hourly Observations for August 19, 2022

Temp ( °F °C ) Dew Point ( °F °C ) Humidity (%) Winds ( mph kmh ) Pressure ( in mb ) Visibility ( mi km ) Precip ( " mm )
12:53 am 00:53 Cloudy 64 17.8 60 15.6 87 87 SW 10 17 29.80 1009 10 16 0.01 0.13
1:38 am 01:38 Cloudy 64 17.8 60 15.6 87 87 WSW 8 13 29.80 1009 10 16 0.00 0.00
1:53 am 01:53 Mostly Cloudy 64 17.8 60 15.6 87 87 WSW 9 15 29.79 1009 10 16 0.00 0.00
2:53 am 02:53 Mostly Cloudy 63 17.2 59 15 87 87 SW 8 13 29.79 1009 10 16 0.00 0.00
3:53 am 03:53 Partly Cloudy 63 17.2 59 15 87 87 SW 6 9 29.79 1009 10 16 0.00 0.00
4:53 am 04:53 Cloudy 62 16.7 58 14.4 86 86 SSW 7 11 29.79 1009 10 16 0.00 0.00
5:53 am 05:53 Mostly Cloudy 63 17.2 58 14.4 84 84 SW 7 11 29.79 1009 10 16 0.00 0.00
6:53 am 06:53 Mostly Cloudy 63 17.2 59 15 87 87 S 5 7 29.78 1009 10 16 0.00 0.00
7:53 am 07:53 Mostly Cloudy 64 17.8 59 15 84 84 S 8 13 29.79 1009 10 16 0.00 0.00
8:31 am 08:31 Mostly Cloudy with Nearby Thunderstorms 65 18.3 60 15.6 84 84 SW 7 11 29.79 1009 8 13 0.01 0.25
8:53 am 08:53 Mostly Cloudy with Light Rain 64 17.8 61 16.1 90 90 SSW 7 11 29.80 1009 8 13 0.02 0.51
9:06 am 09:06 Cloudy 64 17.8 61 16.1 90 90 SSW 6 9 29.78 1009 9 14 0.01 0.13
9:53 am 09:53 Cloudy 66 18.9 62 16.7 87 87 S 6 9 29.80 1009 10 16 0.01 0.13
10:22 am 10:22 Cloudy 67 19.4 62 16.7 84 84 SSW 5 7 29.78 1008 10 16 0.00 0.00
10:35 am 10:35 Cloudy 67 19.4 62 16.7 84 84 S 6 9 29.79 1009 10 16 0.00 0.00
10:53 am 10:53 Cloudy 67 19.4 63 17.2 87 87 S 5 7 29.80 1009 10 16 0.00 0.00
11:10 am 11:10 Mostly Cloudy 69 20.6 63 17.2 81 81 SSW 6 9 29.79 1009 10 16 0.00 0.00
11:29 am 11:29 Mostly Cloudy 70 21.1 63 17.2 78 78 VRB 5 7 29.79 1009 10 16 0.00 0.00
11:53 am 11:53 Mostly Cloudy 72 22.2 63 17.2 73 73 SSW 5 7 29.80 1009 10 16 0.00 0.00
12:53 pm 12:53 Mostly Cloudy 75 23.9 64 17.8 69 69 VRB 5 7 29.78 1009 10 16 0.00 0.00
1:53 pm 13:53 Mostly Cloudy 77 25 63 17.2 62 62 SSE 9 15 29.77 1008 10 16 0.00 0.00
2:02 pm 14:02 Mostly Cloudy with Nearby Thunderstorms 76 24.4 62 16.7 62 62 SSE 6 9 29.76 1008 10 16 0.00 0.00
2:41 pm 14:41 Cloudy with Strong Thunderstorms 68 20 62 16.7 81 81 E 14 22 29.78 1008 8 13 0.10 2.54
2:53 pm 14:53 Mostly Cloudy with Thunderstorms 68 20 62 16.7 81 81 ESE 10 17 29.79 1009 10 16 0.24 6.10
3:18 pm 15:18 Mostly Cloudy with Nearby Thunderstorms 67 19.4 62 16.7 84 84 E 8 13 29.77 1008 10 16 0.01 0.13
3:30 pm 15:30 Mostly Cloudy with Light Rain 68 20 64 17.8 87 87 E 8 13 29.77 1008 10 16 0.01 0.13
3:53 pm 15:53 Mostly Cloudy 69 20.6 64 17.8 84 84 E 10 17 29.78 1009 10 16 0.01 0.13
4:53 pm 16:53 Mostly Cloudy 71 21.7 64 17.8 79 79 E 8 13 29.79 1009 10 16 0.00 0.00
5:53 pm 17:53 Mostly Cloudy 72 22.2 62 16.7 71 71 E 10 17 29.79 1009 10 16 0.00 0.00
6:53 pm 18:53 Partly Cloudy 71 21.7 64 17.8 79 79 E 8 13 29.79 1009 10 16 0.00 0.00
7:53 pm 19:53 Partly Cloudy 71 21.7 62 16.7 73 73 ENE 12 19 29.80 1009 10 16 0.00 0.00
8:53 pm 20:53 Mostly Cloudy 69 20.6 62 16.7 78 78 ESE 6 9 29.83 1010 10 16 0.00 0.00
9:53 pm 21:53 Partly Cloudy 67 19.4 61 16.1 81 81 E 8 13 29.85 1011 10 16 0.00 0.00
10:53 pm 22:53 Mostly Cloudy 66 18.9 60 15.6 81 81 NE 6 9 29.85 1011 10 16 0.00 0.00
11:53 pm 23:53 Mostly Cloudy 66 18.9 60 15.6 81 81 VRB 6 9 29.85 1011 10 16 0.00 0.00

Powered by AerisWeather